Flag for Thailand Weather past 2 weeks in Phuket, Thailand

Now
77 °F

Partly cloudy.


Feels Like: 78 °F
Forecast: 79 / 85 °F
Wind: 2 mph from North

Location: Phuket Airport

Current Time: Sep 22, 2014 at 3:29:08 AM

Latest Report: Sep 22, 2014 at 3:00 AM


Visibility: 6 mi

Pressure: 29.86 "Hg

Humidity: 89%

Dew point: 73 °F

Location of PhuketLocation

Historic Weather in Phuket — Graph

°F

Phuket temperature yesterday

Maximum temperature yesterday: 88 °F (at 12:00 PM)
Minimum temperature yesterday: 77 °F (at 11:30 PM)
Average temperature yesterday: 83 °F

Past Weeks' High & Low Weather Summary

 TemperatureHumidityPressure
High90 °F (Sep 18, 12:30 PM)94% (Sep 8, 11:00 PM)29.95 "Hg (Sep 8, 11:00 PM)
Low73 °F (Sep 8, 11:00 PM)59% (Sep 18, 12:30 PM)29.71 "Hg (Sep 16, 3:00 PM)
Average81 °F79%29.85 "Hg
* Reported Sep 7 2:00 AM — Sep 22 2:30 AM, Phuket, Weather by CustomWeather, © 2014

Note: Actual official high and low records may vary slightly from our data, if they occured in-between our weather recording intervals... More about our weather records

Advertising

Phuket weather history for previous 24 hours

 ConditionsComfort  
Time TempWeatherWind HumidityBarometerVisibility
2:30 AM
Sep 22
77 °FPartly cloudy.2 mph89%29.86 "Hg6 mi
2:00 AM77 °FPartly cloudy.1 mph89%29.86 "Hg6 mi
1:30 AM77 °FPartly cloudy.1 mph94%29.89 "Hg6 mi
1:00 AM77 °FPartly cloudy.No wind94%29.89 "Hg6 mi
12:30 AM77 °FPartly cloudy.No wind94%29.92 "Hg6 mi
12:00 AM77 °FPartly cloudy.No wind94%29.92 "Hg6 mi
11:30 PM
Sep 21
77 °FPartly cloudy.2 mph94%29.92 "Hg6 mi
11:00 PM79 °FPartly cloudy.2 mph89%29.95 "Hg6 mi
10:30 PM79 °FPartly cloudy.1 mph89%29.92 "Hg6 mi
10:00 PM79 °FPartly cloudy.No wind89%29.92 "Hg6 mi
9:30 PM79 °FPassing clouds.No wind84%29.92 "Hg6 mi
9:00 PM79 °FPassing clouds.No wind84%29.89 "Hg6 mi
8:30 PM79 °FPassing clouds.2 mph89%29.89 "Hg6 mi
8:00 PM79 °FPartly cloudy.1 mph84%29.86 "HgN/A
7:30 PM79 °FPartly cloudy.2 mph84%29.86 "HgN/A
7:00 PM81 °FPartly cloudy.1 mph79%29.83 "HgN/A
6:30 PM81 °FPartly cloudy.5 mph79%29.83 "HgN/A
6:00 PM81 °FBroken clouds.3 mph79%29.83 "HgN/A
5:30 PM82 °FBroken clouds.6 mph74%29.83 "HgN/A
5:00 PM82 °FBroken clouds.6 mph79%29.83 "HgN/A
4:30 PM84 °FBroken clouds.10 mph70%29.83 "HgN/A
4:00 PM88 °FPartly sunny.12 mph62%29.83 "HgN/A
3:30 PM86 °FBroken clouds.12 mph66%29.83 "HgN/A
3:00 PM88 °FBroken clouds.13 mph66%29.83 "HgN/A
2:30 PM88 °FBroken clouds.12 mph66%29.83 "HgN/A
2:00 PM86 °FBroken clouds.10 mph70%29.86 "HgN/A
1:30 PM86 °FLight rain. Broken clouds.14 mph66%29.86 "Hg6 mi
1:00 PM88 °FBroken clouds.10 mph66%29.89 "HgN/A
12:30 PM88 °FBroken clouds.12 mph66%29.89 "HgN/A
12:00 PM88 °FBroken clouds.10 mph66%29.89 "HgN/A
11:30 AM86 °FBroken clouds.10 mph70%29.92 "HgN/A
11:00 AM86 °FBroken clouds.10 mph70%29.92 "HgN/A
10:30 AM86 °FBroken clouds.10 mph70%29.92 "HgN/A
10:00 AM86 °FBroken clouds.8 mph70%29.92 "HgN/A
9:30 AM84 °FBroken clouds.7 mph74%29.92 "HgN/A
9:00 AM84 °FBroken clouds.2 mph74%29.92 "Hg6 mi
8:30 AM81 °FBroken clouds.2 mph84%29.92 "Hg6 mi
8:00 AM81 °FBroken clouds.No wind84%29.89 "Hg6 mi
7:30 AM81 °FBroken clouds.No wind84%29.89 "Hg6 mi
7:00 AM81 °FBroken clouds.8 mph84%29.86 "Hg6 mi
6:30 AM79 °FBroken clouds.5 mph84%29.86 "Hg6 mi
6:00 AM79 °FPartly cloudy.No wind84%29.86 "Hg6 mi
4:00 AM81 °FPartly cloudy.6 mph79%29.83 "Hg6 mi
Weather by CustomWeather, © 2014

See weather overviewHow to use our weather pages